Skip Page Navigation
NASA JPL Caltech
NASA Logo - Jet Propulsion Laboratory + View the NASA Portal
+ Center for Near-Earth Object Studies
JPL Home Earth Solar System Stars & Galaxies Technology
JPL Solar System Dynamics
BODIES ORBITS EPHEMERIDES TOOLS PHYSICAL DATA DISCOVERY FAQ SITE MAP
JPL Small-Body Database Browser
Search: [ help ]  
382745 (2003 CC)
Classification: Apollo [NEO, PHA]          SPK-ID: 2382745
Ephemeris | Orbit Diagram | Orbital Elements | Mission Design | Physical Parameters | Discovery Circumstances | Close-Approach Data ]

[ show orbit diagram ]
Orbital Elements at Epoch 2459000.5 (2020-May-31.0) TDB
Reference: JPL 50 (heliocentric ecliptic J2000)
 Element Value Uncertainty (1-sigma)   Units 
e .3268728966425318 4.4134e-08  
a 1.500445288278115 4.2945e-09 au
q 1.009990390645009 6.4597e-08 au
i 2.324158227066813 6.4518e-06 deg
node 136.3283641767822 0.00010628 deg
peri 103.1829968798762 0.00010666 deg
M 87.29810786802096 1.7891e-05 deg
tp 2458837.708770599670
(2019-Dec-20.20877060)
3.2925e-05 TDB
period 671.3185888601269
1.84
2.8821e-06
7.891e-09
d
yr
n .536258053886555 2.3023e-09 deg/d
Q 1.990900185911221 5.6982e-09 au
  Orbit Determination Parameters
   # obs. used (total)      175  
   data-arc span      4986 days (13.65 yr)  
   first obs. used      2003-02-01  
   last obs. used      2016-09-26  
   planetary ephem.      DE431  
   SB-pert. ephem.      SB431-N16  
   condition code      0  
   norm. resid. RMS      .61982  
   source      ORB  
   producer      Otto Matic  
   solution date      2017-Apr-06 09:22:13  

Additional Information
 Earth MOID = .035991 au 
 Jupiter MOID = 3.02204 au 
 T_jup = 4.482 
[ show covariance matrix ]

Ephemeris | Orbit Diagram | Orbital Elements | Mission Design | Physical Parameters | Discovery Circumstances | Close-Approach Data ]

Physical Parameter Table
Parameter Symbol Value Units Sigma Reference Notes
absolute magnitude H 20.3   n/a MPO391929  

382745 (2003 CC)          Discovered 2003-Feb-01 by Spacewatch at Kitt Peak
Reference: Last Updated: 2014-01-21

[ show close-approach data ]
Ephemeris | Orbit Diagram | Orbital Elements | Mission Design | Physical Parameters | Discovery Circumstances | Close-Approach Data ]
ABOUT SSD CREDITS/AWARDS PRIVACY/COPYRIGHT GLOSSARY LINKS
FirstGov 2020-Aug-07 22:07 UT
(server date/time)  
NASA Home Page
Site Manager:   Ryan S. Park
Webmaster  Alan B. Chamberlin